星链-30900 (STARLINK-30900 )

导读

STARLINK-30900是美国SpaceX公司于2023年11月22日发射的星链(Starlink)低轨通信卫星,属于星链第二代星座组网卫星,归属星链互联网项目。星链项目旨在打造全球覆盖的低轨卫星互联网,可为偏远地区、海洋、高纬度区域提供高速低延迟的宽带服务。STARLINK-30900配备星间激光链路技术,能实现卫星间直接通信,降低对地面基站的依赖,助力星链星座扩展服务覆盖范围,提升网络传输性能与可靠性,是星链大规模星座组网的重要组成部分。

基本信息
目录编号:
58423
目录名称:
STARLINK-30900
国际标识:
2023-180X
轨道中心:
EARTH
卫星名称:
星链-30900
卫星全名:
星链-30900 (STARLINK-30900 )
卫星状态:
在轨 (已飞行939 天)
发射日期:
2023-11-22 UTC
国别 :
美国 (US)
星等 :
--
轨道信息
数据来源 国际轨道数据 AOE轨道数据
星历时间 2026-06-16T17:33:14+0800
1天前
查看轨道信息
2026-06-17T07:00:00+0800
1天前
查看轨道信息
半长轴 6861.179km 6861.182km
偏心率 0.0002127 0.0001963
轨道倾角 43.008° 43.003°
近地点辐角 241.509° 242.041°
升交点赤经 214.915° 211.754°
平近点角 118.555° 322.622°
近地点 481.582km 481.698km
远地点 484.502km 484.392km
周期 94.267分钟 94.267分钟
每日圈数 15.275824 15.275815
详细信息
固有亮度:
5
最大亮度:
0.3
卫星平台:
Starlink v2.0 mini
覆盖范围:
全球
运营商:
太空探索技术公司
运营商所在国:
美国
制造商(研发单位):
太空探索技术公司
制造商所在国:
美国
使用方式:
暂无
卫星简介
星链(Starlink)计划是由太空探索技术公司(SpaceX)提出的一个巨型低轨卫星互联网星座项目,计划在2019年至2024年间在太空搭建由约1.2万颗卫星组成的“星链”网络,其中1584颗将部署在地球上空550千米处的近地轨道,并从2020年开始工作。该卫星仍在工作。
2D轨道图
3D轨道图
轨道高度分析图
轨道倾角分析图
轨道综合分析图
查看轨道综合分析图